AirNav   Air Wisconsin pilot careers
 
 374 users online  

37V Arapahoe Municipal Airport
Arapahoe, Nebraska, USA

GOING TO ARAPAHOE?


FAA INFORMATION EFFECTIVE 06 DECEMBER 2018

Location

FAA Identifier: 37V
Lat/Long: 40-20-29.7000N / 099-54-28.1000W
40-20.495000N / 099-54.468333W
40.3415833 / -99.9078056
(estimated)
Elevation: 2273 ft. / 693 m (estimated)
Variation: 08E (1985)
From city: 2 miles N of ARAPAHOE, NE
Time zone: UTC -6 (UTC -5 during Daylight Saving Time)
Zip code: 68922

Airport Operations

Airport use: Open to the public
Activation date: 03/1972
Control tower: no
ARTCC: DENVER CENTER
FSS: COLUMBUS FLIGHT SERVICE STATION
NOTAMs facility: OLU (NOTAM-D service available)
Attendance: 0900 - 2000
Wind indicator: yes
Segmented circle: no
Beacon: white-green (lighted land airport)
Operates sunset to sunrise.

Airport Communications

CTAF: 122.9

Nearby radio navigation aids

VOR radial/distance  VOR name  Freq  Var
OZBr163/(32.0)COZAD VOR109.0009E
MCKr067/32.5MC COOK VOR/DME115.3008E

 
NDB name  Hdg/Dist  Freq  Var  ID
HARRY STRUNK074/11.638905ECSB -.-. ... -...
NORTON350/29.223008ENRN -. .-. -.

Airport Services

Fuel available: 100LL
Parking: hangars and tiedowns
Airframe service: NONE
Powerplant service: NONE
Bottled oxygen: NONE
Bulk oxygen: NONE

Runway Information

Runway 15/33

Dimensions: 3000 x 50 ft. / 914 x 15 m
Surface: asphalt, in good condition
Runway edge lights: medium intensity
Gradient: NW.
RUNWAY 15  RUNWAY 33
Latitude: 40-20.732193N40-20.258738N
Longitude: 099-54.560927W099-54.375702W
Elevation: 2273.0 ft.2261.0 ft.
Gradient: 0.6%0.4% UP
Traffic pattern: leftleft
Runway heading: 155 magnetic, 163 true335 magnetic, 343 true
Markings: basic, in good conditionbasic, in good condition
Obstructions: none15 ft. road, 600 ft. from runway, 26:1 slope to clear

Airport Ownership and Management from official FAA records

Ownership: Publicly-owned
Owner: ARAPAHOE ARPT AUTHORITY
P.O. BOX 331
ARAPAHOE, NE 68922-0331
Phone 308-999-0073
TODD WEVERKA IS CHAIRMAN OF THE ARAPAHOE AIRPORT AUTHORITY (BS 7/2013)
Manager: TODD WEVERKA
P.O. BOX 331
ARAPAHOE, NE 68922-0331
Phone (308) 999-0073

Airport Operational Statistics

Aircraft based on the field: 1
Single engine airplanes: 1
    
Aircraft operations: avg 81/week *
94% local general aviation
6% transient general aviation
* for 12-month period ending 10 April 2018

Instrument Procedures

There are no published instrument procedures at 37V.

Some nearby airports with instrument procedures:

KCSB - Cambridge Municipal Airport (12 nm W)
KHDE - Brewster Field Airport (27 nm E)
KLXN - Jim Kelly Field Airport (28 nm N)
4D9 - Alma Municipal Airport (29 nm SE)
KNRN - Norton Municipal Airport (29 nm S)
 
Loc | Ops | Rwys | IFR | FBO | Links
Com | Nav | Svcs | Stats | Notes

Silverhawk Aviation, Inc.
AirBoss

 
Area around 37V (Arapahoe Municipal Airport)
 
Road maps at: MapQuest Bing Google
 
Aerial photo
WARNING: Photo may not be current or correct
Aerial photo of 37V (Arapahoe Municipal Airport)
Do you have a better or more recent aerial photo of Arapahoe Municipal Airport that you would like to share? If so, please send us your photo.

 
Sectional chart

 
Airport distance calculator
Flying to Arapahoe Municipal Airport? Find the distance to fly.

From to 37V

Sunrise and sunset
Times for 19-Dec-2018
 Local
(UTC-6)
 Zulu
(UTC)
Morning civil twilight07:2813:28
Sunrise07:5913:59
Sunset17:1523:15
Evening civil twilight17:4523:45

Current date and time
Zulu (UTC)  19-Dec-2018 10:51:11
Local (UTC-6)  19-Dec-2018 04:51:11
 
METAR
KLXN 
27nm N 
191035Z AUTO 27003KT 10SM CLR M01/M03 A2969 RMK AO2 T10091032
KHDE 
28nm E 
191035Z AUTO 26010KT 10SM CLR 02/M01 A2969 RMK AO2 T00211010
KMCK 
32nm W 
190953Z AUTO 28008KT 10SM FEW095 00/M03 A2974 RMK AO2 SLP079 T00001033
KOIN 
42nm SW 
191035Z AUTO 25010KT 10SM BKN100 01/M02 A2978 RMK AO1 T00051022
KEAR 
47nm NE 
190957Z AUTO 26011KT 10SM CLR 03/M02 A2970 RMK AO2 SLP064 T00281017
TAF
KMCK 
32nm W 
190520Z 1906/2006 25007KT P6SM SCT200 FM191200 29011KT P6SM BKN100 WS020/33045KT FM191600 32019G29KT P6SM BKN060 FM192000 32025G35KT P6SM BKN100 FM200100 32010G18KT P6SM FEW150
NOTAMs
Click for the latest NOTAMs
NOTAMs are issued by the DoD/FAA and will open in a separate window not controlled by AirNav.

 

 
 

FBO, Fuel Providers, and Aircraft Ground Support

  
 Business Name 
 
 Contact 
 
 Services / Description 
 
Fuel Prices
 
Comments
  
Arapahoe Airport Authority 308-962-7218
[web site]
Airport management, Aviation fuel, Aircraft parking (ramp or tiedown), Hangars, Flight training

More info about Arapahoe Airport Authority
independent
100LL
SS $4.38 
 Updated 30-Nov-2018
 
   write
SS=Self service
Update Fuel Prices
 

Would you like to see your business listed on this page?

 If your business provides an interesting product or service to pilots, flight crews, aircraft, or users of the Arapahoe Municipal Airport, you should consider listing it here.  To start the listing process, click on the button below
 
Add a business
 

Other Pages about Arapahoe Municipal Airport

Update a link
 
Copyright © AirNav, LLC. All rights reserved. Privacy Policy  Contact